Location: Claremont
(33.9858°S, 18.4575°E)
Time: 21:26:55
(UTC+00:00)

USA 215 - Pass Details

Date: 03 March 2021
Orbit: 1102 x 1105 km, 123.0° (Epoch: 19 April)

Event Time Altitude Azimuth Distance (km) Brightness Sun altitude
Rises 18:44:59 0° 144° (SE) 3,948 6.0 -17.9°
Reaches altitude 10° 18:47:37 10° 150° (SSE) 2,986 5.5 -18.4°
Maximum altitude 18:53:42 41° 217° (SW) 1,558 4.5 -19.6°
Drops below altitude 10° 18:59:44 10° 285° (WNW) 2,966 6.2 -20.7°
Sets 19:02:21 0° 291° (WNW) 3,919 6.8 -21.2°
